Location: Unspecified
(0.0000°N, 0.0000°E)
Time: 23:10:09
(UTC+00:00)

Hubble Space Telescope - Pass Details

Date: 22 April 2018
Orbit: 537 x 541 km, 28.5° (Epoch: 25 April)

Event Time Altitude Azimuth Distance (km) Brightness Sun altitude
Exits shadow 04:12:39 - 353° (N) 2,037 3.8 -25.8°
Reaches altitude 10° 04:14:24 10° 14° (NNE) 1,779 3.7 -25.4°
Maximum altitude 04:15:16 11° 27° (NNE) 1,744 3.8 -25.2°
Drops below altitude 10° 04:16:08 10° 39° (NE) 1,780 4.1 -25.0°
Sets 04:20:17 0° 79° (E) 2,671 5.8 -24.0°
